[Iaude] MPEC N19: 2024 MB2 [a=1.14,e=0.22,i=12.9,H=23.3]
    mpec at cfa.harvard.edu 
    mpec at cfa.harvard.edu
       
    Tue Jul  2 16:08:21 EDT 2024
    
    
  
M.P.E.C. 2024-N19                                  Issued 2024 July 2, 20:06 UT
     The Minor Planet Electronic Circulars contain information on unusual
         minor planets, routine data on comets and natural satellites,
         and occasional editorial announcements.  They are published
    on behalf of Division F of the International Astronomical Union by the
          Minor Planet Center, Smithsonian Astrophysical Observatory,
                          Cambridge, MA 02138, U.S.A.
			  
             Prepared using the Tamkin Foundation Computer Network
                              MPC at CFA.HARVARD.EDU
            URL https://www.minorplanetcenter.net/    ISSN 1523-6714
                                    2024 MB2                                    
Observations:
     K24M02B  C2024 06 01.52967117 06 41.123+21 32 55.30         21.97GVEN019F51
     K24M02B  C2024 06 01.55639217 06 37.280+21 33 01.36         22.32GVEN019F51
     K24M02B  C2024 06 01.56969917 06 35.412+21 33 04.29         22.02GVEN019F51
     K24M02B  C2024 06 06.51610916 54 47.153+21 40 41.45         22.07GVEN019F51
     K24M02B  C2024 06 06.52848216 54 45.083+21 40 39.88         21.88GVEN019F51
     K24M02B  C2024 06 06.54082016 54 43.019+21 40 38.36         22.02GVEN019F51
     K24M02B  C2024 06 06.55318016 54 40.998+21 40 36.51         21.47GVEN019F51
     K24M02B  C2024 06 15.28704816 29 52.987+20 31 35.37         23.04GVEN019F52
     K24M02B  C2024 06 15.31359816 29 47.725+20 31 12.82         21.73GVEN019F52
     K24M02B  C2024 06 19.29924316 17 14.724+19 18 31.03         21.10GVEN019F52
     K24M02B* C2024 06 30.37008715 40 48.684+13 26 02.21         21.25wXEN019F51
     K24M02B  C2024 06 30.38236815 40 46.023+13 25 30.59         21.51wXEN019F51
     K24M02B  C2024 06 30.39484615 40 43.357+13 24 58.72         22.08wXEN019F51
     K24M02B  C2024 06 30.40717215 40 40.725+13 24 27.34         21.77wXEN019F51
     K24M02B  C2024 07 01.37372315 37 30.707+12 42 55.76         21.25GVEN019F51
     K24M02B KC2024 07 02.15087915 34 58.82 +12 08 04.9          21.8 GVEN019H21
     K24M02B KC2024 07 02.15665815 34 57.59 +12 07 49.0          21.7 GVEN019H21
     K24M02B KC2024 07 02.15810415 34 57.29 +12 07 45.1          22.0 GVEN019H21
Observer details:
F51 Pan-STARRS 1, Haleakala.  Observers J. Herman, T. Lowe, P. Minguez, A.
    Schultz, I. Smith.  Measurers K. Chambers, T. de Boer, J. Fairlamb, H.
    Gao, M. Huber, C.-C. Lin, E. Magnier, Y. Ramanjooloo, R. Wainscoat, R.
    Weryk.  1.8-m Ritchey-Chretien + CCD.
F52 Pan-STARRS 2, Haleakala.  Observers J. Herman, T. Lowe, P. Minguez, A.
    Schultz, I. Smith.  Measurers K. Chambers, T. de Boer, J. Fairlamb, H.
    Gao, M. Huber, C.-C. Lin, E. Magnier, Y. Ramanjooloo, R. Wainscoat, R.
    Weryk.  1.8-m Ritchey-Chretien + CCD.
H21 Astronomical Research Observatory, Westfield.  Observer R. Holmes.
    Measurers T. Linder, R. Holmes, L. Horn.  1.3-m f/4.0 astrograph + CCD.
Orbital elements:
2024 MB2                                                 Earth MOID = 0.0150 AU
Epoch 2024 Mar. 31.0 TT = JDT 2460400.5                 MPC                     
M 210.54133              (2000.0)            P               Q                  
n   0.80897015     Peri.  257.10506     +0.95373017     -0.22316628             
a   1.1407252      Node   115.49145     +0.27692677     +0.91298956             
e   0.2179235      Incl.   12.89784     -0.11709111     +0.34153605             
P   1.22           H   23.32          G   0.15           U   5                  
Residuals in seconds of arc
240601 F51  0.1+  0.1+    240606 F51  0.1+  0.1-    240630 F51  0.0   0.1-
240601 F51  0.3-  0.1+    240615 F52  0.1+  0.3+    240630 F51  0.0   0.1+
240601 F51  0.0   0.1+    240615 F52  0.1+  0.2+    240701 F51  0.1-  0.0
240606 F51  0.2+  0.2-    240619 F52  0.0   0.1-    240702 H21  0.2+  0.2+
240606 F51  0.0   0.2-    240630 F51  0.2+  0.3+    240702 H21  0.1+  0.1+
240606 F51  0.2-  0.0     240630 F51  0.1-  0.0     240702 H21  0.2+  0.1+
Ephemeris:
2024 MB2                 a,e,i = 1.14, 0.22, 13                  q = 0.8921
Date    TT    R. A. (2000) Decl.     Delta      r    Elong.  Phase     V
2024 06 02    17 05 39.8 +21 34 53   0.2752  1.2266   135.8    35.2    22.4
...
2024 06 17    16 24 32.2 +20 03 51   0.2230  1.1783   132.6    39.4    22.0
...
2024 06 25    15 58 35.5 +16 45 18   0.2017  1.1510   127.7    44.3    21.9
...
2024 07 01    15 38 45.6 +12 59 21   0.1888  1.1299   122.7    49.2    21.8
2024 07 02    15 35 29.1 +12 15 17   0.1869  1.1264   121.8    50.1    21.8
2024 07 03    15 32 13.6 +11 29 26   0.1850  1.1228   120.8    51.0    21.8
...
2024 07 09    15 13 09.6 +06 18 54   0.1754  1.1014   114.6    57.1    21.8
...
2024 07 17    14 49 13.7 -01 56 03   0.1663  1.0726   105.4    66.0    21.9
...
2024 08 01    14 05 44.5 -19 47 44   0.1592  1.0197    87.2    83.8    22.3
A. U. Tomatic                (C) Copyright 2024 MPC           M.P.E.C. 2024-N19
    
    
More information about the Iaude
mailing list